iso_date,epoch_date,Year,Hour,Min,DOY,POS_DOY,Lat,Lon,BP,Ts,Ta,has_bp,has_ts,has_ta,BuoyID,Buoy_Type,Buoy_Owner,Logistics,Hemisphere
2020-07-16T00:09:56Z,1594858196,2020,0,10,198.0069,198.0069,78.64426,1.19132,-999.00,-999.00,-999.0,no,no,no,300534060553730,NOMAD,AWI/USIABP,MOSAiC,North
2020-07-16T00:20:00Z,1594858801,2020,0,20,198.0139,198.0139,78.64217,1.18981,-999.00,-999.00,-999.0,no,no,no,300534060553730,NOMAD,AWI/USIABP,MOSAiC,North
2020-07-16T00:29:57Z,1594859397,2020,0,30,198.0208,198.0208,78.6402,1.18851,-999.00,-999.00,-999.0,no,no,no,300534060553730,NOMAD,AWI/USIABP,MOSAiC,North
2020-07-16T00:40:01Z,1594860002,2020,0,40,198.0278,198.0278,78.63813,1.18711,-999.00,-999.00,-999.0,no,no,no,300534060553730,NOMAD,AWI/USIABP,MOSAiC,North
2020-07-16T00:49:58Z,1594860598,2020,0,50,198.0347,198.0347,78.636,1.18524,-999.00,-999.00,-999.0,no,no,no,300534060553730,NOMAD,AWI/USIABP,MOSAiC,North
2020-07-16T01:00:02Z,1594861203,2020,1,0,198.0417,198.0417,78.63389,1.18349,-999.00,-999.00,-999.0,no,no,no,300534060553730,NOMAD,AWI/USIABP,MOSAiC,North
2020-07-16T01:09:59Z,1594861799,2020,1,10,198.0486,198.0486,78.63182,1.18149,-999.00,-999.00,-999.0,no,no,no,300534060553730,NOMAD,AWI/USIABP,MOSAiC,North
2020-07-16T01:20:03Z,1594862404,2020,1,20,198.0556,198.0556,78.62992,1.18048,-999.00,-999.00,-999.0,no,no,no,300534060553730,NOMAD,AWI/USIABP,MOSAiC,North
2020-07-16T01:30:00Z,1594863000,2020,1,30,198.0625,198.0625,78.62786,1.17971,-999.00,-999.00,-999.0,no,no,no,300534060553730,NOMAD,AWI/USIABP,MOSAiC,North
2020-07-16T01:39:56Z,1594863596,2020,1,40,198.0694,198.0694,78.62592,1.17946,-999.00,-999.00,-999.0,no,no,no,300534060553730,NOMAD,AWI/USIABP,MOSAiC,North
2020-07-16T01:50:00Z,1594864201,2020,1,50,198.0764,198.0764,78.62418,1.17911,-999.00,-999.00,-999.0,no,no,no,300534060553730,NOMAD,AWI/USIABP,MOSAiC,North
2020-07-16T01:59:57Z,1594864797,2020,2,0,198.0833,198.0833,78.62225,1.17955,-999.00,-999.00,-999.0,no,no,no,300534060553730,NOMAD,AWI/USIABP,MOSAiC,North
2020-07-16T02:10:01Z,1594865402,2020,2,10,198.0903,198.0903,78.62022,1.17957,-999.00,-999.00,-999.0,no,no,no,300534060553730,NOMAD,AWI/USIABP,MOSAiC,North
2020-07-16T02:19:58Z,1594865998,2020,2,20,198.0972,198.0972,78.61818,1.17971,-999.00,-999.00,-999.0,no,no,no,300534060553730,NOMAD,AWI/USIABP,MOSAiC,North
2020-07-16T02:30:02Z,1594866603,2020,2,30,198.1042,198.1042,78.61619,1.18007,-999.00,-999.00,-999.0,no,no,no,300534060553730,NOMAD,AWI/USIABP,MOSAiC,North
2020-07-16T02:39:59Z,1594867199,2020,2,40,198.1111,198.1111,78.61411,1.18039,-999.00,-999.00,-999.0,no,no,no,300534060553730,NOMAD,AWI/USIABP,MOSAiC,North
2020-07-16T02:50:03Z,1594867804,2020,2,50,198.1181,198.1181,78.61202,1.18062,-999.00,-999.00,-999.0,no,no,no,300534060553730,NOMAD,AWI/USIABP,MOSAiC,North
2020-07-16T03:00:00Z,1594868400,2020,3,0,198.125,198.125,78.60997,1.18135,-999.00,-999.00,-999.0,no,no,no,300534060553730,NOMAD,AWI/USIABP,MOSAiC,North
2020-07-16T03:09:56Z,1594868996,2020,3,10,198.1319,198.1319,78.60801,1.18234,-999.00,-999.00,-999.0,no,no,no,300534060553730,NOMAD,AWI/USIABP,MOSAiC,North
2020-07-16T03:20:00Z,1594869601,2020,3,20,198.1389,198.1389,78.60605,1.18313,-999.00,-999.00,-999.0,no,no,no,300534060553730,NOMAD,AWI/USIABP,MOSAiC,North
2020-07-16T03:29:57Z,1594870197,2020,3,30,198.1458,198.1458,78.60414,1.18452,-999.00,-999.00,-999.0,no,no,no,300534060553730,NOMAD,AWI/USIABP,MOSAiC,North
2020-07-16T03:40:01Z,1594870802,2020,3,40,198.1528,198.1528,78.60219,1.18564,-999.00,-999.00,-999.0,no,no,no,300534060553730,NOMAD,AWI/USIABP,MOSAiC,North
2020-07-16T03:49:58Z,1594871398,2020,3,50,198.1597,198.1597,78.6002,1.1871,-999.00,-999.00,-999.0,no,no,no,300534060553730,NOMAD,AWI/USIABP,MOSAiC,North
2020-07-16T04:00:02Z,1594872003,2020,4,0,198.1667,198.1667,78.59831,1.18921,-999.00,-999.00,-999.0,no,no,no,300534060553730,NOMAD,AWI/USIABP,MOSAiC,North
2020-07-16T04:09:59Z,1594872599,2020,4,10,198.1736,198.1736,78.59632,1.19109,-999.00,-999.00,-999.0,no,no,no,300534060553730,NOMAD,AWI/USIABP,MOSAiC,North
2020-07-16T04:20:03Z,1594873204,2020,4,20,198.1806,198.1806,78.59426,1.19345,-999.00,-999.00,-999.0,no,no,no,300534060553730,NOMAD,AWI/USIABP,MOSAiC,North
2020-07-16T04:30:00Z,1594873800,2020,4,30,198.1875,198.1875,78.59247,1.19562,-999.00,-999.00,-999.0,no,no,no,300534060553730,NOMAD,AWI/USIABP,MOSAiC,North
2020-07-16T04:39:56Z,1594874396,2020,4,40,198.1944,198.1944,78.59058,1.19827,-999.00,-999.00,-999.0,no,no,no,300534060553730,NOMAD,AWI/USIABP,MOSAiC,North
2020-07-16T04:50:00Z,1594875001,2020,4,50,198.2014,198.2014,78.58872,1.20076,-999.00,-999.00,-999.0,no,no,no,300534060553730,NOMAD,AWI/USIABP,MOSAiC,North
2020-07-16T04:59:57Z,1594875597,2020,5,0,198.2083,198.2083,78.58679,1.20326,-999.00,-999.00,-999.0,no,no,no,300534060553730,NOMAD,AWI/USIABP,MOSAiC,North
2020-07-16T05:10:01Z,1594876202,2020,5,10,198.2153,198.2153,78.58493,1.20584,-999.00,-999.00,-999.0,no,no,no,300534060553730,NOMAD,AWI/USIABP,MOSAiC,North
2020-07-16T05:19:58Z,1594876798,2020,5,20,198.2222,198.2222,78.583,1.20854,-999.00,-999.00,-999.0,no,no,no,300534060553730,NOMAD,AWI/USIABP,MOSAiC,North
2020-07-16T05:30:02Z,1594877403,2020,5,30,198.2292,198.2292,78.58104,1.21136,-999.00,-999.00,-999.0,no,no,no,300534060553730,NOMAD,AWI/USIABP,MOSAiC,North
2020-07-16T05:39:59Z,1594877999,2020,5,40,198.2361,198.2361,78.57911,1.21447,-999.00,-999.00,-999.0,no,no,no,300534060553730,NOMAD,AWI/USIABP,MOSAiC,North
2020-07-16T05:50:03Z,1594878604,2020,5,50,198.2431,198.2431,78.57717,1.21796,-999.00,-999.00,-999.0,no,no,no,300534060553730,NOMAD,AWI/USIABP,MOSAiC,North
2020-07-16T06:00:00Z,1594879200,2020,6,0,198.25,198.25,78.57538,1.22225,-999.00,-999.00,-999.0,no,no,no,300534060553730,NOMAD,AWI/USIABP,MOSAiC,North
2020-07-16T06:09:56Z,1594879796,2020,6,10,198.2569,198.2569,78.57355,1.22639,-999.00,-999.00,-999.0,no,no,no,300534060553730,NOMAD,AWI/USIABP,MOSAiC,North
2020-07-16T06:20:00Z,1594880401,2020,6,20,198.2639,198.2639,78.57175,1.23025,-999.00,-999.00,-999.0,no,no,no,300534060553730,NOMAD,AWI/USIABP,MOSAiC,North
2020-07-16T06:29:57Z,1594880997,2020,6,30,198.2708,198.2708,78.56992,1.23414,-999.00,-999.00,-999.0,no,no,no,300534060553730,NOMAD,AWI/USIABP,MOSAiC,North
2020-07-16T06:40:01Z,1594881602,2020,6,40,198.2778,198.2778,78.56803,1.23832,-999.00,-999.00,-999.0,no,no,no,300534060553730,NOMAD,AWI/USIABP,MOSAiC,North
2020-07-16T06:49:58Z,1594882198,2020,6,50,198.2847,198.2847,78.56611,1.24236,-999.00,-999.00,-999.0,no,no,no,300534060553730,NOMAD,AWI/USIABP,MOSAiC,North
2020-07-16T07:00:02Z,1594882803,2020,7,0,198.2917,198.2917,78.56439,1.24686,-999.00,-999.00,-999.0,no,no,no,300534060553730,NOMAD,AWI/USIABP,MOSAiC,North
2020-07-16T07:09:59Z,1594883399,2020,7,10,198.2986,198.2986,78.56268,1.25155,-999.00,-999.00,-999.0,no,no,no,300534060553730,NOMAD,AWI/USIABP,MOSAiC,North
2020-07-16T07:20:03Z,1594884004,2020,7,20,198.3056,198.3056,78.56093,1.25653,-999.00,-999.00,-999.0,no,no,no,300534060553730,NOMAD,AWI/USIABP,MOSAiC,North
2020-07-16T07:30:00Z,1594884600,2020,7,30,198.3125,198.3125,78.55918,1.26141,-999.00,-999.00,-999.0,no,no,no,300534060553730,NOMAD,AWI/USIABP,MOSAiC,North
2020-07-16T07:39:56Z,1594885196,2020,7,40,198.3194,198.3194,78.55753,1.26693,-999.00,-999.00,-999.0,no,no,no,300534060553730,NOMAD,AWI/USIABP,MOSAiC,North
2020-07-16T07:50:00Z,1594885801,2020,7,50,198.3264,198.3264,78.55585,1.27223,-999.00,-999.00,-999.0,no,no,no,300534060553730,NOMAD,AWI/USIABP,MOSAiC,North
2020-07-16T07:59:57Z,1594886397,2020,8,0,198.3333,198.3333,78.55405,1.27717,-999.00,-999.00,-999.0,no,no,no,300534060553730,NOMAD,AWI/USIABP,MOSAiC,North
2020-07-16T08:10:01Z,1594887002,2020,8,10,198.3403,198.3403,78.55235,1.28286,-999.00,-999.00,-999.0,no,no,no,300534060553730,NOMAD,AWI/USIABP,MOSAiC,North
2020-07-16T08:19:58Z,1594887598,2020,8,20,198.3472,198.3472,78.55059,1.28868,-999.00,-999.00,-999.0,no,no,no,300534060553730,NOMAD,AWI/USIABP,MOSAiC,North
2020-07-16T08:30:02Z,1594888203,2020,8,30,198.3542,198.3542,78.54889,1.29501,-999.00,-999.00,-999.0,no,no,no,300534060553730,NOMAD,AWI/USIABP,MOSAiC,North
2020-07-16T08:39:59Z,1594888799,2020,8,40,198.3611,198.3611,78.54718,1.30148,-999.00,-999.00,-999.0,no,no,no,300534060553730,NOMAD,AWI/USIABP,MOSAiC,North
2020-07-16T08:50:03Z,1594889404,2020,8,50,198.3681,198.3681,78.54542,1.30783,-999.00,-999.00,-999.0,no,no,no,300534060553730,NOMAD,AWI/USIABP,MOSAiC,North
2020-07-16T09:00:00Z,1594890000,2020,9,0,198.375,198.375,78.54364,1.31397,-999.00,-999.00,-999.0,no,no,no,300534060553730,NOMAD,AWI/USIABP,MOSAiC,North
2020-07-16T09:09:56Z,1594890596,2020,9,10,198.3819,198.3819,78.5418,1.32025,-999.00,-999.00,-999.0,no,no,no,300534060553730,NOMAD,AWI/USIABP,MOSAiC,North
2020-07-16T09:20:00Z,1594891201,2020,9,20,198.3889,198.3889,78.54009,1.32698,-999.00,-999.00,-999.0,no,no,no,300534060553730,NOMAD,AWI/USIABP,MOSAiC,North
2020-07-16T09:29:57Z,1594891797,2020,9,30,198.3958,198.3958,78.53836,1.33376,-999.00,-999.00,-999.0,no,no,no,300534060553730,NOMAD,AWI/USIABP,MOSAiC,North
2020-07-16T09:40:01Z,1594892402,2020,9,40,198.4028,198.4028,78.53665,1.34067,-999.00,-999.00,-999.0,no,no,no,300534060553730,NOMAD,AWI/USIABP,MOSAiC,North
2020-07-16T09:49:58Z,1594892998,2020,9,50,198.4097,198.4097,78.53494,1.34741,-999.00,-999.00,-999.0,no,no,no,300534060553730,NOMAD,AWI/USIABP,MOSAiC,North
2020-07-16T10:00:02Z,1594893603,2020,10,0,198.4167,198.4167,78.53319,1.35401,-999.00,-999.00,-999.0,no,no,no,300534060553730,NOMAD,AWI/USIABP,MOSAiC,North
2020-07-16T10:09:59Z,1594894199,2020,10,10,198.4236,198.4236,78.53132,1.36064,-999.00,-999.00,-999.0,no,no,no,300534060553730,NOMAD,AWI/USIABP,MOSAiC,North
2020-07-16T10:20:03Z,1594894804,2020,10,20,198.4306,198.4306,78.52943,1.36742,-999.00,-999.00,-999.0,no,no,no,300534060553730,NOMAD,AWI/USIABP,MOSAiC,North
2020-07-16T10:30:00Z,1594895400,2020,10,30,198.4375,198.4375,78.52748,1.37409,-999.00,-999.00,-999.0,no,no,no,300534060553730,NOMAD,AWI/USIABP,MOSAiC,North
2020-07-16T10:39:56Z,1594895996,2020,10,40,198.4444,198.4444,78.52565,1.3811,-999.00,-999.00,-999.0,no,no,no,300534060553730,NOMAD,AWI/USIABP,MOSAiC,North
2020-07-16T10:50:00Z,1594896601,2020,10,50,198.4514,198.4514,78.5239,1.38802,-999.00,-999.00,-999.0,no,no,no,300534060553730,NOMAD,AWI/USIABP,MOSAiC,North
2020-07-16T10:59:57Z,1594897197,2020,11,0,198.4583,198.4583,78.52217,1.39521,-999.00,-999.00,-999.0,no,no,no,300534060553730,NOMAD,AWI/USIABP,MOSAiC,North
2020-07-16T11:10:01Z,1594897802,2020,11,10,198.4653,198.4653,78.52043,1.40248,-999.00,-999.00,-999.0,no,no,no,300534060553730,NOMAD,AWI/USIABP,MOSAiC,North
2020-07-16T11:19:58Z,1594898398,2020,11,20,198.4722,198.4722,78.51864,1.40945,-999.00,-999.00,-999.0,no,no,no,300534060553730,NOMAD,AWI/USIABP,MOSAiC,North
2020-07-16T11:30:02Z,1594899003,2020,11,30,198.4792,198.4792,78.51675,1.41547,-999.00,-999.00,-999.0,no,no,no,300534060553730,NOMAD,AWI/USIABP,MOSAiC,North
2020-07-16T11:39:59Z,1594899599,2020,11,40,198.4861,198.4861,78.5148,1.42138,-999.00,-999.00,-999.0,no,no,no,300534060553730,NOMAD,AWI/USIABP,MOSAiC,North
2020-07-16T11:50:03Z,1594900204,2020,11,50,198.4931,198.4931,78.51292,1.42785,-999.00,-999.00,-999.0,no,no,no,300534060553730,NOMAD,AWI/USIABP,MOSAiC,North
2020-07-16T12:00:00Z,1594900800,2020,12,0,198.5,198.5,78.51106,1.43438,-999.00,-999.00,-999.0,no,no,no,300534060553730,NOMAD,AWI/USIABP,MOSAiC,North
2020-07-16T12:09:56Z,1594901396,2020,12,10,198.5069,198.5069,78.50925,1.44114,-999.00,-999.00,-999.0,no,no,no,300534060553730,NOMAD,AWI/USIABP,MOSAiC,North
2020-07-16T12:20:00Z,1594902001,2020,12,20,198.5139,198.5139,78.50741,1.4478,-999.00,-999.00,-999.0,no,no,no,300534060553730,NOMAD,AWI/USIABP,MOSAiC,North
2020-07-16T12:29:57Z,1594902597,2020,12,30,198.5208,198.5208,78.50543,1.45382,-999.00,-999.00,-999.0,no,no,no,300534060553730,NOMAD,AWI/USIABP,MOSAiC,North
2020-07-16T12:40:01Z,1594903202,2020,12,40,198.5278,198.5278,78.50351,1.45965,-999.00,-999.00,-999.0,no,no,no,300534060553730,NOMAD,AWI/USIABP,MOSAiC,North
2020-07-16T12:49:58Z,1594903798,2020,12,50,198.5347,198.5347,78.50165,1.46511,-999.00,-999.00,-999.0,no,no,no,300534060553730,NOMAD,AWI/USIABP,MOSAiC,North
2020-07-16T13:00:02Z,1594904403,2020,13,0,198.5417,198.5417,78.5,1.47121,-999.00,-999.00,-999.0,no,no,no,300534060553730,NOMAD,AWI/USIABP,MOSAiC,North
2020-07-16T13:09:59Z,1594904999,2020,13,10,198.5486,198.5486,78.49851,1.47743,-999.00,-999.00,-999.0,no,no,no,300534060553730,NOMAD,AWI/USIABP,MOSAiC,North
2020-07-16T13:20:03Z,1594905604,2020,13,20,198.5556,198.5556,78.49695,1.48382,-999.00,-999.00,-999.0,no,no,no,300534060553730,NOMAD,AWI/USIABP,MOSAiC,North
2020-07-16T13:30:00Z,1594906200,2020,13,30,198.5625,198.5625,78.4956,1.49046,-999.00,-999.00,-999.0,no,no,no,300534060553730,NOMAD,AWI/USIABP,MOSAiC,North
2020-07-16T13:39:56Z,1594906796,2020,13,40,198.5694,198.5694,78.49402,1.4966,-999.00,-999.00,-999.0,no,no,no,300534060553730,NOMAD,AWI/USIABP,MOSAiC,North
2020-07-16T13:50:00Z,1594907401,2020,13,50,198.5764,198.5764,78.49265,1.50335,-999.00,-999.00,-999.0,no,no,no,300534060553730,NOMAD,AWI/USIABP,MOSAiC,North
2020-07-16T13:59:57Z,1594907997,2020,14,0,198.5833,198.5833,78.49126,1.50961,-999.00,-999.00,-999.0,no,no,no,300534060553730,NOMAD,AWI/USIABP,MOSAiC,North
2020-07-16T14:10:01Z,1594908602,2020,14,10,198.5903,198.5903,78.48986,1.5164,-999.00,-999.00,-999.0,no,no,no,300534060553730,NOMAD,AWI/USIABP,MOSAiC,North
2020-07-16T14:19:58Z,1594909198,2020,14,20,198.5972,198.5972,78.48862,1.52384,-999.00,-999.00,-999.0,no,no,no,300534060553730,NOMAD,AWI/USIABP,MOSAiC,North
2020-07-16T14:30:02Z,1594909803,2020,14,30,198.6042,198.6042,78.48743,1.53099,-999.00,-999.00,-999.0,no,no,no,300534060553730,NOMAD,AWI/USIABP,MOSAiC,North
2020-07-16T14:39:59Z,1594910399,2020,14,40,198.6111,198.6111,78.48608,1.53776,-999.00,-999.00,-999.0,no,no,no,300534060553730,NOMAD,AWI/USIABP,MOSAiC,North
2020-07-16T14:50:03Z,1594911004,2020,14,50,198.6181,198.6181,78.48476,1.54502,-999.00,-999.00,-999.0,no,no,no,300534060553730,NOMAD,AWI/USIABP,MOSAiC,North
2020-07-16T15:00:00Z,1594911600,2020,15,0,198.625,198.625,78.48335,1.55273,-999.00,-999.00,-999.0,no,no,no,300534060553730,NOMAD,AWI/USIABP,MOSAiC,North
2020-07-16T15:09:56Z,1594912196,2020,15,10,198.6319,198.6319,78.48194,1.56014,-999.00,-999.00,-999.0,no,no,no,300534060553730,NOMAD,AWI/USIABP,MOSAiC,North
2020-07-16T15:20:00Z,1594912801,2020,15,20,198.6389,198.6389,78.48044,1.56799,-999.00,-999.00,-999.0,no,no,no,300534060553730,NOMAD,AWI/USIABP,MOSAiC,North
2020-07-16T15:29:57Z,1594913397,2020,15,30,198.6458,198.6458,78.4791,1.57603,-999.00,-999.00,-999.0,no,no,no,300534060553730,NOMAD,AWI/USIABP,MOSAiC,North
2020-07-16T15:40:01Z,1594914002,2020,15,40,198.6528,198.6528,78.47775,1.58388,-999.00,-999.00,-999.0,no,no,no,300534060553730,NOMAD,AWI/USIABP,MOSAiC,North
2020-07-16T15:49:58Z,1594914598,2020,15,50,198.6597,198.6597,78.47624,1.59124,-999.00,-999.00,-999.0,no,no,no,300534060553730,NOMAD,AWI/USIABP,MOSAiC,North
2020-07-16T16:00:02Z,1594915203,2020,16,0,198.6667,198.6667,78.47469,1.59897,-999.00,-999.00,-999.0,no,no,no,300534060553730,NOMAD,AWI/USIABP,MOSAiC,North
2020-07-16T16:09:59Z,1594915799,2020,16,10,198.6736,198.6736,78.47304,1.60668,-999.00,-999.00,-999.0,no,no,no,300534060553730,NOMAD,AWI/USIABP,MOSAiC,North
2020-07-16T16:20:03Z,1594916404,2020,16,20,198.6806,198.6806,78.47128,1.61474,-999.00,-999.00,-999.0,no,no,no,300534060553730,NOMAD,AWI/USIABP,MOSAiC,North
2020-07-16T16:30:00Z,1594917000,2020,16,30,198.6875,198.6875,78.46951,1.62256,-999.00,-999.00,-999.0,no,no,no,300534060553730,NOMAD,AWI/USIABP,MOSAiC,North
2020-07-16T16:39:56Z,1594917596,2020,16,40,198.6944,198.6944,78.46793,1.63045,-999.00,-999.00,-999.0,no,no,no,300534060553730,NOMAD,AWI/USIABP,MOSAiC,North
2020-07-16T16:50:00Z,1594918201,2020,16,50,198.7014,198.7014,78.46619,1.63749,-999.00,-999.00,-999.0,no,no,no,300534060553730,NOMAD,AWI/USIABP,MOSAiC,North
2020-07-16T16:59:57Z,1594918797,2020,17,0,198.7083,198.7083,78.46413,1.64409,-999.00,-999.00,-999.0,no,no,no,300534060553730,NOMAD,AWI/USIABP,MOSAiC,North
2020-07-16T17:10:01Z,1594919402,2020,17,10,198.7153,198.7153,78.46228,1.65058,-999.00,-999.00,-999.0,no,no,no,300534060553730,NOMAD,AWI/USIABP,MOSAiC,North
2020-07-16T17:19:58Z,1594919998,2020,17,20,198.7222,198.7222,78.4606,1.65776,-999.00,-999.00,-999.0,no,no,no,300534060553730,NOMAD,AWI/USIABP,MOSAiC,North
2020-07-16T17:30:02Z,1594920603,2020,17,30,198.7292,198.7292,78.45887,1.66507,-999.00,-999.00,-999.0,no,no,no,300534060553730,NOMAD,AWI/USIABP,MOSAiC,North
2020-07-16T17:39:59Z,1594921199,2020,17,40,198.7361,198.7361,78.45719,1.67249,-999.00,-999.00,-999.0,no,no,no,300534060553730,NOMAD,AWI/USIABP,MOSAiC,North
2020-07-16T17:50:03Z,1594921804,2020,17,50,198.7431,198.7431,78.4555,1.67971,-999.00,-999.00,-999.0,no,no,no,300534060553730,NOMAD,AWI/USIABP,MOSAiC,North
2020-07-16T18:00:00Z,1594922400,2020,18,0,198.75,198.75,78.45372,1.68599,-999.00,-999.00,-999.0,no,no,no,300534060553730,NOMAD,AWI/USIABP,MOSAiC,North
2020-07-16T18:09:56Z,1594922996,2020,18,10,198.7569,198.7569,78.45207,1.69176,-999.00,-999.00,-999.0,no,no,no,300534060553730,NOMAD,AWI/USIABP,MOSAiC,North
2020-07-16T18:20:00Z,1594923601,2020,18,20,198.7639,198.7639,78.45039,1.69691,-999.00,-999.00,-999.0,no,no,no,300534060553730,NOMAD,AWI/USIABP,MOSAiC,North
2020-07-16T18:29:57Z,1594924197,2020,18,30,198.7708,198.7708,78.44879,1.70278,-999.00,-999.00,-999.0,no,no,no,300534060553730,NOMAD,AWI/USIABP,MOSAiC,North
2020-07-16T18:40:01Z,1594924802,2020,18,40,198.7778,198.7778,78.44724,1.7085,-999.00,-999.00,-999.0,no,no,no,300534060553730,NOMAD,AWI/USIABP,MOSAiC,North
2020-07-16T18:49:58Z,1594925398,2020,18,50,198.7847,198.7847,78.44573,1.71417,-999.00,-999.00,-999.0,no,no,no,300534060553730,NOMAD,AWI/USIABP,MOSAiC,North
2020-07-16T19:00:02Z,1594926003,2020,19,0,198.7917,198.7917,78.44417,1.71912,-999.00,-999.00,-999.0,no,no,no,300534060553730,NOMAD,AWI/USIABP,MOSAiC,North
2020-07-16T19:09:59Z,1594926599,2020,19,10,198.7986,198.7986,78.44263,1.72394,-999.00,-999.00,-999.0,no,no,no,300534060553730,NOMAD,AWI/USIABP,MOSAiC,North
2020-07-16T19:20:03Z,1594927204,2020,19,20,198.8056,198.8056,78.44115,1.72834,-999.00,-999.00,-999.0,no,no,no,300534060553730,NOMAD,AWI/USIABP,MOSAiC,North
2020-07-16T19:30:00Z,1594927800,2020,19,30,198.8125,198.8125,78.43967,1.73271,-999.00,-999.00,-999.0,no,no,no,300534060553730,NOMAD,AWI/USIABP,MOSAiC,North
2020-07-16T19:39:56Z,1594928396,2020,19,40,198.8194,198.8194,78.43814,1.73695,-999.00,-999.00,-999.0,no,no,no,300534060553730,NOMAD,AWI/USIABP,MOSAiC,North
2020-07-16T19:50:00Z,1594929001,2020,19,50,198.8264,198.8264,78.43668,1.74099,-999.00,-999.00,-999.0,no,no,no,300534060553730,NOMAD,AWI/USIABP,MOSAiC,North
2020-07-16T19:59:57Z,1594929597,2020,20,0,198.8333,198.8333,78.43536,1.74458,-999.00,-999.00,-999.0,no,no,no,300534060553730,NOMAD,AWI/USIABP,MOSAiC,North
2020-07-16T20:10:01Z,1594930202,2020,20,10,198.8403,198.8403,78.43421,1.74821,-999.00,-999.00,-999.0,no,no,no,300534060553730,NOMAD,AWI/USIABP,MOSAiC,North
2020-07-16T20:19:58Z,1594930798,2020,20,20,198.8472,198.8472,78.4328,1.75259,-999.00,-999.00,-999.0,no,no,no,300534060553730,NOMAD,AWI/USIABP,MOSAiC,North
2020-07-16T20:30:02Z,1594931403,2020,20,30,198.8542,198.8542,78.43161,1.75605,-999.00,-999.00,-999.0,no,no,no,300534060553730,NOMAD,AWI/USIABP,MOSAiC,North
2020-07-16T20:39:59Z,1594931999,2020,20,40,198.8611,198.8611,78.43048,1.75965,-999.00,-999.00,-999.0,no,no,no,300534060553730,NOMAD,AWI/USIABP,MOSAiC,North
2020-07-16T20:50:03Z,1594932604,2020,20,50,198.8681,198.8681,78.42925,1.763,-999.00,-999.00,-999.0,no,no,no,300534060553730,NOMAD,AWI/USIABP,MOSAiC,North
2020-07-16T21:00:00Z,1594933200,2020,21,0,198.875,198.875,78.42796,1.76598,-999.00,-999.00,-999.0,no,no,no,300534060553730,NOMAD,AWI/USIABP,MOSAiC,North
2020-07-16T21:09:56Z,1594933796,2020,21,10,198.8819,198.8819,78.42683,1.76902,-999.00,-999.00,-999.0,no,no,no,300534060553730,NOMAD,AWI/USIABP,MOSAiC,North
2020-07-16T21:20:00Z,1594934401,2020,21,20,198.8889,198.8889,78.42586,1.77144,-999.00,-999.00,-999.0,no,no,no,300534060553730,NOMAD,AWI/USIABP,MOSAiC,North
2020-07-16T21:29:57Z,1594934997,2020,21,30,198.8958,198.8958,78.4251,1.77341,-999.00,-999.00,-999.0,no,no,no,300534060553730,NOMAD,AWI/USIABP,MOSAiC,North
2020-07-16T21:40:01Z,1594935602,2020,21,40,198.9028,198.9028,78.42431,1.77554,-999.00,-999.00,-999.0,no,no,no,300534060553730,NOMAD,AWI/USIABP,MOSAiC,North
2020-07-16T21:49:58Z,1594936198,2020,21,50,198.9097,198.9097,78.42335,1.77836,-999.00,-999.00,-999.0,no,no,no,300534060553730,NOMAD,AWI/USIABP,MOSAiC,North
2020-07-16T22:00:02Z,1594936803,2020,22,0,198.9167,198.9167,78.42244,1.78091,-999.00,-999.00,-999.0,no,no,no,300534060553730,NOMAD,AWI/USIABP,MOSAiC,North
2020-07-16T22:09:59Z,1594937399,2020,22,10,198.9236,198.9236,78.4216,1.78268,-999.00,-999.00,-999.0,no,no,no,300534060553730,NOMAD,AWI/USIABP,MOSAiC,North
2020-07-16T22:20:03Z,1594938004,2020,22,20,198.9306,198.9306,78.4208,1.78478,-999.00,-999.00,-999.0,no,no,no,300534060553730,NOMAD,AWI/USIABP,MOSAiC,North
2020-07-16T22:30:00Z,1594938600,2020,22,30,198.9375,198.9375,78.4201,1.78752,-999.00,-999.00,-999.0,no,no,no,300534060553730,NOMAD,AWI/USIABP,MOSAiC,North
2020-07-16T22:39:56Z,1594939196,2020,22,40,198.9444,198.9444,78.41932,1.79076,-999.00,-999.00,-999.0,no,no,no,300534060553730,NOMAD,AWI/USIABP,MOSAiC,North
2020-07-16T22:50:00Z,1594939801,2020,22,50,198.9514,198.9514,78.41861,1.79374,-999.00,-999.00,-999.0,no,no,no,300534060553730,NOMAD,AWI/USIABP,MOSAiC,North
2020-07-16T22:59:57Z,1594940397,2020,23,0,198.9583,198.9583,78.41805,1.79626,-999.00,-999.00,-999.0,no,no,no,300534060553730,NOMAD,AWI/USIABP,MOSAiC,North
2020-07-16T23:10:01Z,1594941002,2020,23,10,198.9653,198.9653,78.41762,1.79914,-999.00,-999.00,-999.0,no,no,no,300534060553730,NOMAD,AWI/USIABP,MOSAiC,North
2020-07-16T23:19:58Z,1594941598,2020,23,20,198.9722,198.9722,78.41724,1.80273,-999.00,-999.00,-999.0,no,no,no,300534060553730,NOMAD,AWI/USIABP,MOSAiC,North
2020-07-16T23:30:02Z,1594942203,2020,23,30,198.9792,198.9792,78.41701,1.80713,-999.00,-999.00,-999.0,no,no,no,300534060553730,NOMAD,AWI/USIABP,MOSAiC,North
2020-07-16T23:39:59Z,1594942799,2020,23,40,198.9861,198.9861,78.41674,1.81144,-999.00,-999.00,-999.0,no,no,no,300534060553730,NOMAD,AWI/USIABP,MOSAiC,North
2020-07-16T23:50:03Z,1594943404,2020,23,50,198.9931,198.9931,78.41636,1.81584,-999.00,-999.00,-999.0,no,no,no,300534060553730,NOMAD,AWI/USIABP,MOSAiC,North
2020-07-17T00:00:00Z,1594944000,2020,0,0,199.0,199.0,78.41607,1.82068,-999.00,-999.00,-999.0,no,no,no,300534060553730,NOMAD,AWI/USIABP,MOSAiC,North
2020-07-17T00:09:56Z,1594944596,2020,0,10,199.0069,199.0069,78.41588,1.82566,-999.00,-999.00,-999.0,no,no,no,300534060553730,NOMAD,AWI/USIABP,MOSAiC,North
2020-07-17T00:20:00Z,1594945201,2020,0,20,199.0139,199.0139,78.41547,1.83121,-999.00,-999.00,-999.0,no,no,no,300534060553730,NOMAD,AWI/USIABP,MOSAiC,North
2020-07-17T00:29:57Z,1594945797,2020,0,30,199.0208,199.0208,78.41498,1.83701,-999.00,-999.00,-999.0,no,no,no,300534060553730,NOMAD,AWI/USIABP,MOSAiC,North
2020-07-17T00:40:01Z,1594946402,2020,0,40,199.0278,199.0278,78.41446,1.84233,-999.00,-999.00,-999.0,no,no,no,300534060553730,NOMAD,AWI/USIABP,MOSAiC,North
2020-07-17T00:49:58Z,1594946998,2020,0,50,199.0347,199.0347,78.41406,1.84832,-999.00,-999.00,-999.0,no,no,no,300534060553730,NOMAD,AWI/USIABP,MOSAiC,North
2020-07-17T01:00:02Z,1594947603,2020,1,0,199.0417,199.0417,78.41345,1.85451,-999.00,-999.00,-999.0,no,no,no,300534060553730,NOMAD,AWI/USIABP,MOSAiC,North
2020-07-17T01:09:59Z,1594948199,2020,1,10,199.0486,199.0486,78.41268,1.85983,-999.00,-999.00,-999.0,no,no,no,300534060553730,NOMAD,AWI/USIABP,MOSAiC,North
2020-07-17T01:20:03Z,1594948804,2020,1,20,199.0556,199.0556,78.41207,1.86592,-999.00,-999.00,-999.0,no,no,no,300534060553730,NOMAD,AWI/USIABP,MOSAiC,North
2020-07-17T01:30:00Z,1594949400,2020,1,30,199.0625,199.0625,78.41155,1.87213,-999.00,-999.00,-999.0,no,no,no,300534060553730,NOMAD,AWI/USIABP,MOSAiC,North